Location: Woodhurst
(52.3667°N, 0.0667°W)
Time: 01:16:19
(UTC+00:00)

Cosmos 773 Rocket - Pass Details

Date: 19 May 2025
Orbit: 742 x 772 km, 74.1° (Epoch: 18 June)

Event Time Altitude Azimuth Distance (km) Brightness Sun altitude
Exits shadow 21:51:30 10° 189° (S) 2,229 5.9 -12.7°
Maximum altitude 21:56:27 61° 110° (ESE) 843 4.0 -13.1°
Drops below altitude 10° 22:01:30 10° 31° (NNE) 2,267 6.9 -13.4°
Sets 22:03:53 0° 28° (NNE) 3,194 7.7 -13.6°
